Weather History for Moriarty, NM

Change the Weather History Date:

Sunday, February 10, 2013

  Actual Average (KABQ) Record (KABQ)
Temperature  
Mean Temperature 26 °F 40 °F  
Max Temperature 40 °F 51 °F 72 °F (1916)
Min Temperature 10 °F 29 °F 5 °F (1933)
Degree Days  
Heating Degree Days 39 25  
Month to date heating degree days 257  
Since 1 July heating degree days 2899  
Cooling Degree Days 0 0  
Month to date cooling degree days 0  
Year to date cooling degree days 0  
Moisture  
Dew Point 10 °F    
Average Humidity 50    
Maximum Humidity 78    
Minimum Humidity 26    
Precipitation  
Precipitation 0.00 in 0.02 in 0.19 in (1976)
Month to date precipitation 0.16  
Year to date precipitation 0.54  
Snow  
Snow 0.00 in - - ()
Month to date snowfall  
Since 1 July snowfall  
Snow Depth -    
Sea Level Pressure  
Sea Level Pressure 29.88 in    
Wind  
Wind Speed 12 mph (West)    
Max Wind Speed 21 mph    
Max Gust Speed 25 mph    
Visibility 10 miles    
Events      
T = Trace of Precipitation, MM = Missing Value Source: NWS Daily Summary

Daily Weather History Graph

Daily Weather History Graph

Search for Another Location

Airport:

Trip Planner

Search our weather history database for the weather conditions in past years. The results will help you decide how hot, cold, wet, or windy it might be!

Date:

Astronomy

Feb. 10, 2013 Rise Set
Actual Time 6:54 AM MST 5:42 PM MST
Civil Twilight 6:28 AM MST 6:08 PM MST
Nautical Twilight 5:58 AM MST 6:38 PM MST
Astronomical Twilight 5:29 AM MST 7:07 PM MST
Moon 6:49 AM MST (2/10) 6:31 PM MST (2/10)
Length of Visible Light 11h 39m
Length of Day
10h 47m
New Moon, 0% of the Moon is Illuminated
Feb 10
New Moon
Feb 17
First Quarter
Feb 25
Full
Mar 4
Last Quarter
Mar 11
New

Hourly Weather History & Observations

Time (MST) Temp. Windchill Dew Point Humidity Pressure Visibility Wind Dir Wind Speed Gust Speed Precip Events Conditions
12:15 AM 26.6 °F 13.4 °F 14.7 °F 61% 29.82 in 10.0 mi West 18.4 mph 24.2 mph N/A   Clear
12:35 AM 26.6 °F 13.8 °F 14.9 °F 61% 29.82 in 10.0 mi West 17.3 mph 24.2 mph N/A   Clear
12:55 AM 26.6 °F 13.8 °F 15.3 °F 62% 29.82 in 10.0 mi West 17.3 mph 25.3 mph N/A   Clear
1:15 AM 26.4 °F 13.6 °F 15.4 °F 63% 29.82 in 10.0 mi WSW 17.3 mph 21.9 mph N/A   Clear
1:35 AM 26.2 °F 15.2 °F 15.4 °F 64% 29.82 in 10.0 mi West 12.7 mph - N/A   Clear
1:55 AM 26.4 °F 12.5 °F 15.1 °F 62% 29.82 in 10.0 mi West 20.7 mph 25.3 mph N/A   Clear
2:15 AM 26.1 °F 15.0 °F 14.9 °F 63% 29.82 in 10.0 mi West 12.7 mph 25.3 mph N/A   Clear
2:55 AM 25.3 °F 13.1 °F 15.3 °F 66% 29.82 in 10.0 mi West 15.0 mph 21.9 mph N/A   Clear
3:15 AM 25.7 °F 13.1 °F 15.3 °F 65% 29.82 in 10.0 mi West 16.1 mph - N/A   Clear
3:35 AM 25.7 °F 14.0 °F 15.4 °F 65% 29.82 in 10.0 mi West 13.8 mph 24.2 mph N/A   Clear
3:55 AM 25.0 °F 14.2 °F 15.4 °F 67% 29.82 in 10.0 mi West 11.5 mph - N/A   Clear
4:15 AM 24.3 °F 12.7 °F 15.8 °F 70% 29.82 in 10.0 mi WSW 12.7 mph - N/A   Clear
4:35 AM 24.4 °F 12.4 °F 15.8 °F 70% 29.82 in 10.0 mi WSW 13.8 mph - N/A   Clear
4:55 AM 24.6 °F 13.8 °F 15.8 °F 69% 29.82 in 10.0 mi West 11.5 mph - N/A   Clear
5:15 AM 23.7 °F 14.7 °F 15.4 °F 71% 29.83 in 10.0 mi West 8.1 mph - N/A   Clear
5:35 AM 23.4 °F 14.3 °F 14.9 °F 70% 29.84 in 10.0 mi WNW 8.1 mph - N/A   Clear
5:55 AM 23.2 °F - 14.4 °F 69% 29.84 in 10.0 mi Calm Calm - N/A   Clear
6:15 AM 17.2 °F 11.9 °F 11.3 °F 78% 29.85 in 10.0 mi ESE 3.5 mph - N/A   Clear
6:35 AM 19.4 °F - 13.3 °F 77% 29.85 in 10.0 mi Calm Calm - N/A   Clear
6:55 AM 20.5 °F 10.8 °F 13.3 °F 74% 29.86 in 10.0 mi West 8.1 mph - N/A   Clear
7:15 AM 23.9 °F 15.0 °F 14.9 °F 69% 29.87 in 10.0 mi West 8.1 mph - N/A   Clear
7:35 AM 25.5 °F 16.2 °F 15.6 °F 66% 29.88 in 10.0 mi West 9.2 mph - N/A   Clear
7:55 AM 27.7 °F 19.6 °F 16.3 °F 62% 29.89 in 10.0 mi West 8.1 mph - N/A   Clear
8:15 AM 29.8 °F 18.0 °F 15.4 °F 55% 29.89 in 10.0 mi West 17.3 mph 20.7 mph N/A   Clear
8:35 AM 31.3 °F 19.9 °F 14.5 °F 50% 29.90 in 10.0 mi West 17.3 mph - N/A   Clear
8:55 AM 32.0 °F 22.5 °F 13.8 °F 47% 29.90 in 10.0 mi West 12.7 mph 18.4 mph N/A   Clear
9:15 AM 32.9 °F 22.8 °F 13.1 °F 44% 29.90 in 10.0 mi WSW 15.0 mph 18.4 mph N/A   Clear
9:35 AM 33.8 °F 23.9 °F 12.6 °F 42% 29.91 in 10.0 mi West 15.0 mph 21.9 mph N/A   Clear
9:55 AM 34.9 °F 25.7 °F 11.3 °F 38% 29.91 in 10.0 mi WNW 13.8 mph 17.3 mph N/A   Clear
10:15 AM 35.8 °F 26.9 °F 12.7 °F 39% 29.91 in 10.0 mi West 13.8 mph 20.7 mph N/A   Clear
10:35 AM 36.1 °F 25.9 °F 12.4 °F 38% 29.91 in 10.0 mi West 18.4 mph 23.0 mph N/A   Clear
10:55 AM 36.7 °F 27.6 °F 12.6 °F 37% 29.90 in 10.0 mi West 15.0 mph 23.0 mph N/A   Clear
11:15 AM 37.4 °F 28.2 °F 12.0 °F 35% 29.90 in 10.0 mi WSW 16.1 mph 23.0 mph N/A   Clear
11:35 AM 37.8 °F 28.6 °F 12.0 °F 35% 29.90 in 10.0 mi West 16.1 mph 24.2 mph N/A   Clear
11:55 AM 37.8 °F 29.4 °F 10.6 °F 33% 29.90 in 10.0 mi West 13.8 mph 23.0 mph N/A   Clear
12:15 PM 38.5 °F 28.6 °F 11.8 °F 34% 29.90 in 10.0 mi WSW 19.6 mph 25.3 mph N/A   Clear
12:35 PM 37.4 °F 28.2 °F 11.7 °F 35% 29.90 in 10.0 mi WSW 16.1 mph 21.9 mph N/A   Clear
12:55 PM 36.3 °F 26.4 °F 12.0 °F 37% 29.89 in 10.0 mi WSW 17.3 mph 21.9 mph N/A   Scattered Clouds
1:15 PM 36.9 °F 27.5 °F 11.3 °F 35% 29.88 in 10.0 mi WSW 16.1 mph - N/A   Scattered Clouds
1:35 PM 38.3 °F 30.5 °F 11.7 °F 34% 29.88 in 10.0 mi West 12.7 mph 21.9 mph N/A   Mostly Cloudy
1:55 PM 40.3 °F 32.6 °F 11.1 °F 30% 29.88 in 10.0 mi WSW 13.8 mph 19.6 mph N/A   Scattered Clouds
2:15 PM 39.9 °F 33.4 °F 10.4 °F 30% 29.87 in 10.0 mi West 10.4 mph 18.4 mph N/A   Scattered Clouds
2:35 PM 40.5 °F 35.1 °F 9.7 °F 28% 29.87 in 10.0 mi West 8.1 mph 19.6 mph N/A   Scattered Clouds
2:55 PM 40.6 °F 33.4 °F 8.8 °F 27% 29.87 in 10.0 mi West 12.7 mph 21.9 mph N/A   Scattered Clouds
3:15 PM 39.2 °F 31.6 °F 8.6 °F 28% 29.87 in 10.0 mi WSW 12.7 mph 21.9 mph N/A   Scattered Clouds
3:35 PM 40.3 °F 32.2 °F 8.4 °F 27% 29.87 in 10.0 mi West 15.0 mph 20.7 mph N/A   Scattered Clouds
3:55 PM 39.4 °F 31.8 °F 8.1 °F 27% 29.88 in 10.0 mi WSW 12.7 mph 18.4 mph N/A   Clear
4:15 PM 39.7 °F 31.5 °F 7.3 °F 26% 29.88 in 10.0 mi West 15.0 mph - N/A   Clear
4:35 PM 39.0 °F 33.4 °F 7.7 °F 27% 29.89 in 10.0 mi West 8.1 mph - N/A   Clear
4:55 PM 38.3 °F 29.3 °F 6.8 °F 27% 29.89 in 10.0 mi WSW 16.1 mph - N/A   Clear
5:15 PM 37.0 °F 28.9 °F 7.2 °F 29% 29.90 in 10.0 mi WSW 12.7 mph - N/A   Clear
5:35 PM 34.0 °F 27.2 °F 6.8 °F 32% 29.90 in 10.0 mi WSW 8.1 mph - N/A   Clear
5:55 PM 31.5 °F 24.2 °F 6.8 °F 35% 29.90 in 10.0 mi SW 8.1 mph - N/A   Clear
6:15 PM 28.2 °F 20.2 °F 5.9 °F 39% 29.91 in 10.0 mi SW 8.1 mph - N/A   Clear
6:35 PM 27.9 °F 21.5 °F 6.8 °F 41% 29.91 in 10.0 mi WSW 5.8 mph - N/A   Clear
6:55 PM 26.6 °F - 6.1 °F 42% 29.92 in 10.0 mi Calm Calm - N/A   Clear
7:15 PM 28.2 °F 24.4 °F 7.0 °F 41% 29.92 in 10.0 mi WSW 3.5 mph - N/A   Clear
7:35 PM 23.2 °F - 5.4 °F 47% 29.92 in 10.0 mi Calm Calm - N/A   Clear
7:55 PM 23.9 °F - 5.9 °F 46% 29.93 in 10.0 mi Calm Calm - N/A   Clear
8:15 PM 23.9 °F - 6.3 °F 47% 29.93 in 10.0 mi Calm Calm - N/A   Clear
8:35 PM 23.5 °F - 4.8 °F 45% 29.93 in 10.0 mi Calm Calm - N/A   Clear
8:55 PM 17.4 °F - 2.8 °F 53% 29.94 in 10.0 mi Calm Calm - N/A   Clear
9:15 PM 15.6 °F - 2.8 °F 57% 29.94 in 10.0 mi Calm Calm - N/A   Clear
9:35 PM 14.2 °F - 2.1 °F 59% 29.94 in 10.0 mi Calm Calm - N/A   Scattered Clouds
9:55 PM 14.4 °F 6.9 °F 2.3 °F 59% 29.94 in 10.0 mi NNE 4.6 mph - N/A   Scattered Clouds
10:15 PM 15.8 °F 10.2 °F 4.1 °F 60% 29.94 in 10.0 mi NE 3.5 mph - N/A   Scattered Clouds
10:35 PM 16.3 °F - 4.5 °F 60% 29.95 in 10.0 mi Calm Calm - N/A   Clear
10:55 PM 14.2 °F - 3.6 °F 63% 29.96 in 10.0 mi Calm Calm - N/A   Clear
11:15 PM 16.3 °F 10.8 °F 3.6 °F 57% 29.96 in 10.0 mi North 3.5 mph - N/A   Clear
11:35 PM 12.2 °F 6.1 °F 2.5 °F 65% 29.95 in 10.0 mi North 3.5 mph - N/A   Clear
11:55 PM 10.8 °F 2.7 °F 1.0 °F 65% 29.96 in 10.0 mi NW 4.6 mph - N/A   Clear